Observations for Trim Patrick St
| Time | AQI | Temp °C | Hum % | Pres Pa | CO μg/m³ | H₂S μg/m³ | NO μg/m³ | NO₂ μg/m³ | O₃ μg/m³ | SO₂ μg/m³ | PM1 μg/m³ | PM2.5 μg/m³ | PM10 μg/m³ |
|---|---|---|---|---|---|---|---|---|---|---|---|---|---|
| Saturday 8 August 2026 | |||||||||||||
| 15:19 | 2 | 33 | 31 | 69,395 | 0 | 0 | 0.55 | 12.58 | 75.48 | 15.5 | 2.86 | 8.42 | 9.26 |
| 15:18 | 2 | 33 | 31 | 69,385 | 0 | 0 | 0.54 | 9.36 | 54.78 | 15.73 | 2 | 7.59 | 8.35 |
| 15:13 | 2 | 32.6 | 32 | 69,389 | 0 | 0 | 0.59 | 11.62 | 71.87 | 15.75 | 2 | 7.52 | 8.27 |
| 15:12 | 2 | 32.5 | 32 | 69,381 | 0 | 0 | 0.61 | 11.88 | 72.74 | 15.43 | 2 | 8.33 | 9.16 |
| 15:11 | 2 | 32.4 | 32 | 69,367 | 0 | 0 | 0.63 | 11.8 | 65.89 | 15.44 | 2 | 7.54 | 8.3 |
| 15:10 | 2 | 32.2 | 32 | 69,347 | 0 | 0 | 0.64 | 11.7 | 75.13 | 14.9 | 2 | 7.53 | 8.28 |
| 15:09 | 2 | 32.1 | 33 | 69,353 | 0 | 0 | 0.65 | 11.78 | 98.53 | 14.87 | 2.86 | 8.28 | 9.11 |
| 15:08 | 2 | 32 | 33 | 69,365 | 0 | 0 | 0.65 | 11.43 | 73.76 | 15.05 | 2 | 7.47 | 8.21 |
| 15:07 | 2 | 31.8 | 34 | 69,353 | 0 | 0 | 0.67 | 11.15 | 73.84 | 14.86 | 2 | 8.21 | 9.03 |
| 15:05 | 2 | 31.6 | 33 | 69,320 | 0 | 0 | 0.77 | 11.47 | 72.68 | 14.56 | 2 | 7.49 | 8.24 |
| 15:04 | 2 | 31.5 | 34 | 69,328 | 0 | 0 | 0.77 | 10.83 | 68.16 | 15.19 | 2.86 | 8.25 | 9.08 |
| 15:03 | 2 | 31.4 | 35 | 69,306 | 0 | 0 | 0.74 | 10.45 | 80.46 | 15.14 | 2.86 | 8.98 | 9.87 |
| 15:02 | 2 | 31.3 | 34 | 69,306 | 0 | 0 | 0.79 | 11.53 | 74.27 | 14 | 2 | 7.4 | 8.14 |
| 15:01 | 2 | 31.1 | 34 | 69,312 | 0 | 0 | 0.82 | 11.24 | 73.49 | 14.63 | 2.86 | 8.2 | 9.02 |
| 15:00 | 2 | 31.1 | 35 | 69,318 | 0 | 0 | 0.8 | 11.31 | 96.27 | 15.19 | 2.86 | 8.94 | 9.84 |
| 14:59 | 2 | 31 | 34 | 69,296 | 0 | 0 | 0.84 | 11.82 | 73.82 | 13.81 | 2.86 | 8.22 | 9.04 |
| 14:58 | 2 | 30.9 | 34 | 69,304 | 0 | 0 | 0.83 | 10.98 | 86.02 | 14.49 | 2 | 8.19 | 9.01 |
| 14:57 | 2 | 30.9 | 34 | 69,312 | 0 | 0 | 0.81 | 13.92 | 101.38 | 15.3 | 2.86 | 8.19 | 9.01 |
| 14:56 | 2 | 30.9 | 34 | 69,294 | 0 | 0 | 0.8 | 10.75 | 66.63 | 14.89 | 2 | 7.42 | 8.16 |
| 14:55 | 2 | 30.9 | 34 | 69,300 | 0 | 0 | 0.79 | 12.24 | 73.42 | 13.65 | 2 | 7.41 | 8.15 |